Back to catalog

FENGYUN 1C DEB

LostSSO
NORAD 32189·DEBRIS·🇨🇳 China

Launched May 10, 1999 from Taiyuan Satellite Launch Center

Loading…

Next Passes (next 24 hours)

TLE

StaleSource: Space-Track

Epoch: Sep 23, 2022, 00:11 UTC

1 32189U 99025CUK 22266.00801535  .00003896  00000-0  16674-2 0  9990
2 32189  98.9682 347.8411 0035411 192.9639 167.0633 14.25165115783294

Track FENGYUN 1C DEB in real time with AllMySat

Download on the App Store